Tracking 29892 objects as of 21-Nov-2024
HD Live streaming from Space Station
objects crossing your sky now

STARLINK-31472

Track STARLINK-31472 now!
10-day predictions
STARLINK-31472 is classified as:


NORAD ID: 59730
Int'l Code: 2024-090A
Perigee: 449.8 km
Apogee: 452.6 km
Inclination: 43.0 °
Period: 93.5 minutes
Semi major axis: 6822 km
RCS: Unknown
Launch date: May 13, 2024
Source: United States (US)
Launch site: AIR FORCE EASTERN TEST RANGE (AFETR)
Your satellite tracking list
Your tracking list is empty




NASA's NSSDC Master Catalog

Two Line Element Set (TLE):
1 59730U 24090A   24325.38764998  .00001572  00000-0  44908-4 0  9993
2 59730  43.0053 352.3327 0002079 243.7008 116.3635 15.40700974 30788
Source of the keplerian elements: AFSPC